sat.trackr.live / text

‹ back to catalog

STARLINK-30589

NORAD 58103 · 2023-161G

PAYLOAD ACTIVE UNKNOWN

§ Identity

Operator
Country
US
Launch date
2023-10-21
Launch site
AFWTR
Launch vehicle
Mass (kg)
RCS (m²)

Purposes: comms

External: N2YO · Heavens-Above · Gunter

§ Orbital elements

Epoch: 2026-05-24T08:44:05.483040Z

Period
94.11 min
Inclination
53.1580°
Eccentricity
0.0000903
Mean motion
15.30201913 rev/d
Perigee alt
474.6 km
Apogee alt
475.8 km
Semi-major
6,853.3 km
B*
2.7276e-4
RAAN
174.1242°
Arg perigee
67.7159°
Mean anomaly
292.3938°
Rev number
14,600

§ Raw data

STARLINK-305891 58103U 23161G   26144.36395235  .00007728  00000+0  27276-3 0  99932 58103  53.1580 174.1242 0000903  67.7159 292.3938 15.30201913146001

JSON: /api/v1/satellites/58103 · /tle

For live sub-satellite position, see the globe view (requires WebGL).

§ Visibility from observer

Set your observer location to see the next 7 days of passes ≥ 10°. The values pass through the URL so the page stays shareable.

No JS? Fill the form by hand. The geolocation button needs JavaScript.